Maun, Botswana

10:42 PM CAT on August 28, 2016 (GMT +0200)
Maun

Weather History for FBMN - February, 2013

Change the Weather History Date:

Friday, February 22, 2013

  Actual Average Record
Temperature  
Mean Temperature 82 °F -  
Max Temperature 95 °F 87 °F 100 °F (2015)
Min Temperature 70 °F 67 °F 68 °F (2002)
Cooling Degree Days 18    
Growing Degree Days 32 (Base 50)    
Moisture  
Dew Point 67 °F    
Average Humidity 66    
Maximum Humidity 88    
Minimum Humidity 31    
Precipitation  
Precipitation 0.00 in - - ()
Sea Level Pressure  
Sea Level Pressure 29.96 in    
Wind  
Wind Speed 6 mph ()    
Max Wind Speed 34 mph    
Max Gust Speed -    
Visibility 6.1 miles    
Events Rain , Thunderstorm    
Averages and records for this station are not official NWS values.
T = Trace of Precipitation, MM = Missing Value Source: Averaged Metar Reports

Daily Weather History Graph

Daily Weather History Graph

Search for Another Location

Airport or City:

Trip Planner

Search our weather history database for the weather conditions in past years. The results will help you decide how hot, cold, wet, or windy it might be!

Date:

Astronomy

Feb. 22, 2013 Rise Set
Actual Time 6:21 AM CAT 6:58 PM CAT
Civil Twilight 5:58 AM CAT 7:20 PM CAT
Nautical Twilight 5:32 AM CAT 7:46 PM CAT
Astronomical Twilight 5:05 AM CAT 8:13 PM CAT
Moon 4:28 PM CAT (2/22) 3:11 AM CAT (2/22)
Length of Visible Light 13h 21m
Length of Day
12h 36m
Waxing Gibbous, 88% of the Moon is Illuminated
Feb 22
Waxing Gibbous
Feb 25
Full
Mar 4
Last Quarter
Mar 11
New
Mar 19
First Quarter

Hourly Weather History & Observations

Time (CAT) Temp. Heat Index Dew Point Humidity Pressure Visibility Wind Dir Wind Speed Gust Speed Precip Events Conditions
2:00 AM 78 °F - 66 °F 59%  in 6 mi NE 2.3 mph - -   Partly Cloudy
3:00 AM 75.2 °F - 66.2 °F 73% 29.98 in - East 5.8 mph - N/A   Clear
4:00 AM 73.4 °F - 66.2 °F 78% 29.98 in - ENE 9.2 mph - N/A   Clear
5:00 AM 73.4 °F - 66.2 °F 78% 29.98 in - ENE 9.2 mph - N/A   Clear
6:00 AM 73.4 °F - 68.0 °F 83% 29.98 in - NNE 3.5 mph - N/A   Clear
7:00 AM 73.4 °F - 68.0 °F 83% 29.98 in - NNE 4.6 mph - N/A   Clear
8:00 AM 76 °F - 68 °F 71%  in 6 mi NNE 8.1 mph - -   Partly Cloudy
8:00 AM 77.0 °F - 68.0 °F 74% 30.01 in - NNE 8.1 mph - N/A   Clear
9:00 AM 80.6 °F 83.2 °F 68.0 °F 65% 30.01 in - NE 13.8 mph - N/A   Clear
10:00 AM 84.2 °F 87.3 °F 68.0 °F 58% 30.01 in - NE 9.2 mph - N/A   Clear
11:00 AM 86.0 °F 89.4 °F 68.0 °F 55% 30.01 in - NE 9.2 mph - N/A   Clear
1:00 PM 91.4 °F 93.2 °F 64.4 °F 41% 29.95 in 6.2 mi NE 8.1 mph - N/A   Partly Cloudy
2:00 PM 93 °F - 66 °F 31%  in 6 mi NE 8.1 mph - -   Partly Cloudy
2:00 PM 93.2 °F 96.2 °F 66.2 °F 41% 29.92 in 6.2 mi NE 8.1 mph - N/A   Partly Cloudy
3:00 PM 95.0 °F 98.5 °F 66.2 °F 39% 29.86 in 6.2 mi WNW 9.2 mph - N/A   Partly Cloudy
4:00 PM 95.0 °F 98.5 °F 66.2 °F 39% 29.83 in 6.2 mi NNE 5.8 mph - N/A   Partly Cloudy
5:00 PM 80.6 °F 81.8 °F 62.6 °F 54% 29.89 in 6.2 mi SE 34.5 mph - N/A Rain Rain
6:00 PM 73.4 °F - 66.2 °F 78% 29.95 in 6.2 mi NNW 5.8 mph - N/A Rain , Thunderstorm Light Thunderstorms and Rain
7:00 PM 73.4 °F - 68.0 °F 83% 29.95 in 6.2 mi Variable 1.2 mph - N/A Thunderstorm Thunderstorm
8:00 PM 73 °F - 69 °F 83%  in 6 mi NNW 5.8 mph - - Thunderstorm Light Thunderstorm
9:00 PM 73.4 °F - 69.8 °F 88% 29.98 in 6.2 mi West 5.8 mph - N/A   Scattered Clouds
10:00 PM 75.2 °F - 66.2 °F 73% 29.98 in 6.2 mi NNW 3.5 mph - N/A   Scattered Clouds
11:00 PM 73.4 °F - 68.0 °F 83% 29.98 in 6.2 mi Variable 2.3 mph - N/A   Partly Cloudy